Weather History for Goteborg Save AFB, Sweden

Change the Weather History Date:

Tuesday, February 5, 2013

  Actual Average Record
Temperature  
Mean Temperature 34 °F -  
Max Temperature 37 °F - - ()
Min Temperature 32 °F - - ()
Degree Days  
Heating Degree Days 30    
Moisture  
Dew Point 32 °F    
Average Humidity 85    
Maximum Humidity 93    
Minimum Humidity 81    
Precipitation  
Precipitation 0.00 in - - ()
Sea Level Pressure  
Sea Level Pressure 29.05 in    
Wind  
Wind Speed 13 mph ()    
Max Wind Speed 21 mph    
Max Gust Speed -    
Visibility 5.9 miles    
Events Rain , Snow    
T = Trace of Precipitation, MM = Missing Value Source: Averaged Metar Reports

Daily Weather History Graph

Daily Weather History Graph

Search for Another Location

Airport:

Trip Planner

Search our weather history database for the weather conditions in past years. The results will help you decide how hot, cold, wet, or windy it might be!

Date:

Astronomy

Feb. 05, 2013 Rise Set
Actual Time 8:06 AM CET 4:47 PM CET
Civil Twilight 7:23 AM CET 5:30 PM CET
Nautical Twilight 6:36 AM CET 6:17 PM CET
Astronomical Twilight 5:51 AM CET 7:02 PM CET
Moon 3:54 AM CET (2/5) 11:22 AM CET (2/5)
Length of Visible Light 10h 06m
Length of Day
8h 41m
Waning Crescent, 29% of the Moon is Illuminated
Feb 5
Waning Crescent
Feb 10
New
Feb 17
First Quarter
Feb 25
Full
Mar 4
Last Quarter

Hourly Weather History & Observations

Time (CET) Temp. Windchill Dew Point Humidity Pressure Visibility Wind Dir Wind Speed Gust Speed Precip Events Conditions
12:20 AM 37.4 °F 27.5 °F 32.0 °F 81% 29.06 in 6.2 mi WSW 18.4 mph - N/A   Scattered Clouds
12:50 AM 37.4 °F 26.9 °F 32.0 °F 81% 29.06 in 6.2 mi WSW 20.7 mph - N/A   Partly Cloudy
1:20 AM 37.4 °F 27.8 °F 32.0 °F 81% 29.06 in 6.2 mi WSW 17.3 mph - N/A   Mostly Cloudy
1:50 AM 37.4 °F 27.2 °F 32.0 °F 81% 29.03 in 6.2 mi WSW 19.6 mph - N/A   Partly Cloudy
2:20 AM 37.4 °F 27.5 °F 32.0 °F 81% 29.03 in - WSW 18.4 mph - N/A   Clear
2:50 AM 37.4 °F 27.5 °F 32.0 °F 81% 29.03 in - WSW 18.4 mph - N/A   Clear
3:20 AM 37.4 °F 28.5 °F 32.0 °F 81% 29.03 in 6.2 mi WSW 15.0 mph - N/A   Partly Cloudy
3:50 AM 37.4 °F 28.5 °F 32.0 °F 81% 29.03 in 6.2 mi WSW 15.0 mph - N/A   Mostly Cloudy
4:20 AM 37.4 °F 28.9 °F 32.0 °F 81% 29.03 in 6.2 mi WSW 13.8 mph - N/A   Partly Cloudy
4:50 AM 37.4 °F 28.9 °F 32.0 °F 81% 29.03 in 6.2 mi SW 13.8 mph - N/A   Mostly Cloudy
5:20 AM 35.6 °F 27.1 °F 30.2 °F 81% 29.03 in 6.2 mi WSW 12.7 mph - N/A   Mostly Cloudy
5:50 AM 35.6 °F 27.1 °F 32.0 °F 87% 29.03 in 6.2 mi SW 12.7 mph - N/A   Overcast
6:20 AM 35.6 °F 27.1 °F 30.2 °F 81% 29.03 in 6.2 mi SW 12.7 mph - N/A   Scattered Clouds
6:50 AM 35.6 °F 26.6 °F 30.2 °F 81% 29.03 in 6.2 mi SW 13.8 mph - N/A   Scattered Clouds
7:20 AM 35.6 °F 27.5 °F 30.2 °F 81% 29.03 in 6.2 mi WSW 11.5 mph - N/A   Partly Cloudy
7:50 AM 35.6 °F 27.5 °F 32.0 °F 87% 29.03 in 6.2 mi SW 11.5 mph - N/A   Scattered Clouds
8:20 AM 35.6 °F 27.5 °F 30.2 °F 81% 29.03 in 6.2 mi SW 11.5 mph - N/A   Mostly Cloudy
8:50 AM 35.6 °F 27.5 °F 32.0 °F 87% 29.03 in 6.2 mi SW 11.5 mph - N/A   Mostly Cloudy
9:20 AM 35.6 °F 28.0 °F 32.0 °F 87% 29.03 in 6.2 mi SW 10.4 mph - N/A   Scattered Clouds
9:50 AM 35.6 °F 27.5 °F 32.0 °F 87% 29.03 in 6.2 mi SW 11.5 mph - N/A   Scattered Clouds
10:20 AM 37.4 °F 29.8 °F 32.0 °F 81% 29.03 in 6.2 mi SW 11.5 mph - N/A   Mostly Cloudy
10:50 AM 37.4 °F 28.9 °F 32.0 °F 81% 29.06 in 6.2 mi SW 13.8 mph - N/A   Mostly Cloudy
11:20 AM 37.4 °F 28.5 °F 32.0 °F 81% 29.06 in 6.2 mi SW 15.0 mph - N/A   Mostly Cloudy
11:50 AM 37.4 °F 29.3 °F 32.0 °F 81% 29.06 in 6.2 mi SW 12.7 mph - N/A   Mostly Cloudy
12:20 PM 37.4 °F 28.9 °F 32.0 °F 81% 29.06 in 6.2 mi SW 13.8 mph - N/A   Scattered Clouds
12:50 PM 37.4 °F 28.2 °F 32.0 °F 81% 29.06 in 6.2 mi SW 16.1 mph - N/A   Scattered Clouds
1:20 PM 37.4 °F 28.9 °F 32.0 °F 81% 29.06 in 6.2 mi SW 13.8 mph - N/A   Mostly Cloudy
1:50 PM 37.4 °F 29.3 °F 32.0 °F 81% 29.06 in 6.2 mi SW 12.7 mph - N/A   Overcast
2:50 PM 37.4 °F 28.9 °F 32.0 °F 81% 29.06 in 6.2 mi SW 13.8 mph - N/A   Mostly Cloudy
3:20 PM 35.6 °F 27.5 °F 32.0 °F 87% 29.06 in 6.2 mi SW 11.5 mph - N/A   Overcast
3:50 PM 35.6 °F 28.0 °F 32.0 °F 87% 29.06 in 6.2 mi SW 10.4 mph - N/A   Overcast
4:20 PM 35.6 °F 28.0 °F 32.0 °F 87% 29.06 in 6.2 mi SW 10.4 mph - N/A   Overcast
4:50 PM 35.6 °F 28.6 °F 32.0 °F 87% 29.06 in 6.2 mi SW 9.2 mph - N/A   Overcast
5:20 PM 35.6 °F 28.6 °F 32.0 °F 87% 29.06 in 6.2 mi SSW 9.2 mph - N/A   Mostly Cloudy
5:50 PM 35.6 °F 28.6 °F 32.0 °F 87% 29.06 in 6.2 mi SSW 9.2 mph - N/A   Overcast
6:20 PM 35.6 °F 29.2 °F 32.0 °F 87% 29.06 in 6.2 mi SSW 8.1 mph - N/A   Overcast
6:50 PM 35.6 °F 28.6 °F 32.0 °F 87% 29.06 in 4.3 mi SSW 9.2 mph - N/A   Drizzle
7:20 PM 35.6 °F 29.2 °F 32.0 °F 87% 29.06 in 5.0 mi SSW 8.1 mph - N/A Rain Light Rain
7:50 PM 33.8 °F 27.0 °F 32.0 °F 93% 29.06 in 3.1 mi SW 8.1 mph - N/A Rain Light Rain
8:20 PM 33.8 °F 25.8 °F 32.0 °F 93% 29.06 in - West 10.4 mph - N/A Rain Light Rain
8:50 PM 33.8 °F 27.7 °F 32.0 °F 93% 29.06 in - WSW 6.9 mph - N/A Snow Light Snow
9:20 PM 33.8 °F 30.8 °F 32.0 °F 93% 29.06 in - WSW 3.5 mph - N/A Snow Light Snow
9:50 PM 33.8 °F 29.6 °F 32.0 °F 93% 29.09 in 5.0 mi West 4.6 mph - N/A Snow Snow Grains
10:20 PM 32.0 °F 25.6 °F 30.2 °F 93% 29.09 in 6.2 mi NW 6.9 mph - N/A Snow Light Snow
10:50 PM 32.0 °F 24.2 °F 30.2 °F 93% 29.09 in 6.2 mi NW 9.2 mph - N/A Snow Snow Grains
11:20 PM 32.0 °F 24.8 °F 30.2 °F 93% 29.09 in 3.7 mi NW 8.1 mph - N/A Snow Light Snow
11:50 PM 32.0 °F 26.4 °F 30.2 °F 93% 29.09 in 2.5 mi WNW 5.8 mph - N/A Snow Light Snow